Location: Waco, TX
(31.5480°N, 97.1670°W)
Time: 00:29:24
(UTC-06:00)

ISS - Pass Details

Date: 11 December 2017
Orbit: 403 x 407 km, 51.6° (Epoch: 12 December)

Event Time Altitude Azimuth Distance (km) Brightness Sun altitude
Rises 14:03:14 0° 275° (W) 2,320 0.3 30.3°
Reaches altitude 10° 14:07:00 10° 319° (NW) 1,463 -1.1 29.9°
Maximum altitude 14:07:35 10° 329° (NNW) 1,444 -1.2 29.8°
Drops below altitude 10° 14:08:10 10° 340° (NNW) 1,464 -1.3 29.8°
Sets 14:11:57 0° 24° (NNE) 2,327 -0.5 29.4°
